Regional Weather Roundup
Issued by NWS Bismarck, ND

Home | Current Version | Previous Version | Text Only | Print | Product List | Glossary On
Versions: 1 2 3 4 5 6 7 8 9 10 11 12 13 14 15 16 17 18 19 20 21 22 23 24 25 26 27 28 29 30 31 32 33 34 35 36 37 38 39 40 41 42 43 44 45 46 47 48 49 50
000
ASUS43 KBIS 021210
RWRBIS

NWR BROADCAST TEXT
NATIONAL WEATHER SERVICE BISMARCK ND
700 AM CDT MON MAY 02 2016

NOTE: "FAIR" INDICATES FEW OR NO CLOUDS BELOW 12,000 FEET WITH NO
SIGNIFICANT WEATHER AND/OR OBSTRUCTIONS TO VISIBILITY.


CITY           SKY/WX    TMP DP  RH WIND       PRES   REMARKS
WILLISTON      CLOUDY    49  35  58 W16       30.03F
MINOT          CLOUDY    49  36  61 SE5       29.97S
MINOT AFB      CLOUDY    46  37  71 S1        29.96F
BISMARCK       CLOUDY    45  38  76 NE8       30.06R
DICKINSON      CLOUDY    44  32  62 W13       30.05F
GARRISON         N/A     51  36  56 W14       30.01F
HETTINGER ARPT PTCLDY    41  34  76 NW9       30.11S
JAMESTOWN      CLOUDY    47  33  58 SW5       30.04F
BEACH          FAIR      45  32  61 W14       30.13F
CARRINGTON     FAIR      50  36  57 SE7       30.04F
HAZEN          CLOUDY    46  34  61 NW3       30.07R
LINTON         FAIR      41  37  87 SE3       30.08F
MANDAN         CLOUDY    46  34  61 CALM      30.05S
OAKES            N/A    N/A N/A N/A MISG        N/A
RUGBY          FAIR      48  41  76 S8        29.97F
STANLEY        FAIR      48  36  61 W13       30.01F
WATFORD CITY   PTSUNNY   50  32  50 W9        30.05S
$$

CITY           SKY/WX    TMP DP  RH WIND       PRES   REMARKS
GRAND FORKS    MOCLDY    43  31  62 SE8       30.03F
GRAND FORKS AF PTCLDY    45  32  59 SW6       30.03F
DEVILS LAKE    CLOUDY    52  37  56 SE5       30.02S
FARGO          PTCLDY    43  33  68 S5        30.06S
CANDO          CLOUDY    50  39  66 S15       30.01F
CAVALIER       PTSUNNY   48  32  53 SW5       30.03S
GRAFTON        PTSUNNY   41  36  81 CALM      30.05F
GWINNER        FAIR      43  36  75 SW8       30.08F
LANGDON        FAIR      46  34  61 SW5       30.04R
ROLLA          FAIR      45  37  76 NE3       30.00R
WALHALLA       FAIR      50  32  50 CALM      30.03S
$$

CITY           SKY/WX    TMP DP  RH WIND       PRES   REMARKS
ABERDEEN       MOCLDY    37  33  85 SE3       30.10S
MOBRIDGE       PTCLDY    44  36  73 CALM      30.06S
BUFFALO          N/A     39  31  72 W9        30.06F
RAPID CITY     CLEAR     36  29  75 W10       30.15F
GLASGOW        CLEAR     41  34  76 W7        30.12S
SIDNEY         CLOUDY    52  30  43 W20       30.06F
WOLF POINT     CLEAR     44  36  73 SW9       30.10F
GLENDIVE       CLOUDY    43  30  61 NW5       30.14S
MILES CITY     CLEAR     38  35  89 S3        30.14S
BAKER          PTCLDY    39  30  70 W10       30.13F
$$

CITY           SKY/WX    TMP DP  RH WIND       PRES   REMARKS
BILLINGS       CLOUDY    39  31  72 SW10      30.20R
GREAT FALLS    PTCLDY    36  32  85 SW9       30.18S
REGINA         PTCLDY    37  32  81 N5        30.03S
ESTEVAN        PTCLDY    41  34  75 NW10      30.00
$$





USA.gov is the U.S. government's official web portal to all federal, state and local government web resources and services.